星链-2697 (STARLINK-2697 )

导读

STARLINK-2697是美国SpaceX公司星链(Starlink)星座的组网卫星,于2021年5月9日发射升空,属于星链计划低轨卫星互联网星座的组成部分,承担着为全球提供高速互联网接入服务的任务,依托低轨卫星星座架构,助力实现全球范围的网络覆盖,推动卫星互联网技术发展。

Basic Information
目录编号:
48474
目录名称:
STARLINK-2697
国际标识:
2021-040AY
轨道中心:
EARTH
卫星名称:
星链-2697
卫星全名:
星链-2697 (STARLINK-2697 )
卫星状态:
在轨 (已飞行1944 天)
发射日期:
2021-05-09 UTC
国别 :
美国 (US)
星等 :
--
Orbit Information
数据来源 国际轨道数据
星历时间: 2026-09-03T03:48:13+0800
1天前
查看轨道信息
半长轴: 6847.887km
偏心率: 0.0001252
轨道倾角: 53.159°
近地点辐角 167.833°
升交点赤经 87.422°
平近点角 192.271°
近地点: 468.892km
远地点: 470.608km
周期: 93.993分钟
每日圈数: 15.320322
Detailed Information
固有亮度:
5
最大亮度:
2.5
卫星平台:
Starlink V1.0
覆盖范围:
全球
运营商:
太空探索技术公司
运营商所在国:
美国
制造商(研发单位):
太空探索技术公司
制造商所在国:
美国
使用方式:
暂无
Satellite Introduction
星链(Starlink)计划是由太空探索技术公司(SpaceX)提出的一个巨型低轨卫星互联网星座项目,计划在2019年至2024年间在太空搭建由约1.2万颗卫星组成的“星链”网络,其中1584颗将部署在地球上空550千米处的近地轨道,并从2020年开始工作。该卫星仍在工作。
2D Orbit Map
3D Orbit Map
Orbit Altitude Analysis Chart
Orbit Inclination Analysis Chart
Orbit Comprehensive Analysis Chart
View Comprehensive Chart
Conjunction Data List
Event ID Objects TCA Miss Dist (km) Collision Risk Probability Collision Risk Index (CRI) Action
CDM_260904-084304-847406-904821
2026-09-04T
08:43:01+0000
0.660 km
远距离
5.736971E-5 中风险 0.7
CDM_260905-012704-847406-370121
2026-09-05T
01:27:40+0000
0.857 km
远距离
1.529498E-5 中风险 0.59
CDM_260905-034904-847406-803721
2026-09-05T
03:49:31+0000
1.368 km
极远距离
8.373267E-6 低风险 0.53
CDM_260905-043904-847406-393321
2026-09-05T
04:39:43+0000
1.339 km
极远距离
7.87616E-6 低风险 0.53
CDM_260904-231004-847406-393321
2026-09-04T
23:10:55+0000
1.581 km
极远距离
4.550096E-6 低风险 0.48
CDM_260905-115604-847405-178321
2026-09-05T
11:56:03+0000
1.831 km
极远距离
3.188371E-6 低风险 0.45
CDM_260905-101304-847405-386421
2026-09-05T
10:13:05+0000
2.050 km
极远距离
2.131734E-6 低风险 0.42
CDM_260906-052904-847406-529021
2026-09-06T
05:29:52+0000
2.378 km
极远距离
1.848259E-6 低风险 0.4
CDM_260905-011604-847406-965821
2026-09-05T
01:16:22+0000
2.812 km
极远距离
1.421961E-6 低风险 0.38
CDM_260904-101704-847406-904821
2026-09-04T
10:17:05+0000
2.635 km
极远距离
9.77112E-7 极低风险 0.35